[[{"header":{"parameterUnit":"m.s-1","parameterCategory":1,"la1":30.2991,"la2":30.254,"lo1":-89.0895,"lo2":-89.0444,"dy":0.0017,"dx":0.0017,"nx":28,"ny":28,"refTime":"2024-06-08T21:00:00:Z","depth":0,"parameterNumber":2,"parameterNumberName":"U-component_of_WINDS"},"data":[0,0,0,0,0,0,0,0,0,0,0,0,0,0,0,0,0,0,0,0,0,0,0,0,0,0,0,0,0,0,0,0,0,0,0,0,0,0,0,0,0,0,0,0,0,0,0,0,0,0,0,0,0,0,0,0,0,0,1.101,1.1012,0,1.114,1.1141,1.1143,1.1172,1.1172,1.1171,1.117,1.1303,1.1307,1.1311,0,0,0,0,0,0,0,0,0,0,0,0,0,1.0788,1.0792,1.101,1.1012,1.1013,1.1139,1.1141,1.1143,1.1173,1.1172,1.117,1.1169,1.1301,1.1307,1.1312,0,0,0,0,0,0,0,0,0,0,0,0,0,1.0897,1.0793,1.101,1.1043,1.1048,1.1139,1.1141,1.1143,1.1173,1.1171,1.117,1.1169,1.13,1.1306,1.1313,1.138,0,0,1.1333,1.1335,0,0,0,0,0,0,0,0,1.0891,1.0906,1.1037,1.1041,1.1046,1.1139,1.1112,1.1223,1.1173,1.1125,1.117,1.1168,1.1249,1.126,1.1287,1.1386,1.1392,1.1333,1.1337,1.134,1.1342,0,0,0,0,0,0,0,1.0884,1.09,1.1061,1.1039,1.1045,1.1052,1.1066,1.1133,1.1193,1.1129,1.1132,1.1147,1.1252,1.1281,1.129,1.1394,1.1333,1.1339,1.1343,1.1345,1.1553,1.1554,0,0,0,0,0,0,1.087,1.0894,1.1057,1.1065,1.0964,1.1057,1.1072,1.111,1.1193,1.1204,1.1148,1.1148,1.127,1.1283,1.1295,1.1379,1.134,1.1346,1.135,1.1551,1.1553,1.1555,0,0,0,0,0,0,1.0865,1.0885,1.1052,1.098,1.1002,1.1062,1.1104,1.1114,1.1143,1.1207,1.1217,1.1167,1.127,1.1286,1.1358,1.1384,1.1349,1.1355,1.1549,1.1552,1.1554,1.1546,0,0,0,0,0,0,1.0859,1.0883,1.0909,1.0981,1.1006,1.1113,1.1106,1.1117,1.1154,1.1155,1.1227,1.1238,1.127,1.1348,1.1365,1.1392,1.136,1.1547,1.155,1.1553,1.1545,1.1548,1.1551,0,0,0,0,0,1.0851,1.0902,1.091,1.093,1.104,1.1115,1.1129,1.1165,1.1156,1.1183,1.1223,1.1235,1.1378,1.1355,1.1374,1.1404,1.1546,1.1549,1.1553,1.1543,1.1547,1.1551,0,0,0,0,0,0,1.0833,1.0913,1.0922,1.0999,1.105,1.112,1.1155,1.1169,1.1223,1.1222,1.1264,1.128,1.135,1.1384,1.1357,1.1472,1.1462,1.1469,1.1448,1.1452,1.1456,1.1446,1.1366,0,0,0,0,0,1.0838,1.0892,1.0958,1.1019,1.1044,1.1095,1.1129,1.1151,1.1206,1.1228,1.1274,1.1326,1.1383,1.142,1.1475,1.1549,1.1565,1.1579,1.1582,1.1584,1.1591,1.1631,1.1638,1.1566,1.1566,1.1566,0,0,1.0849,1.0899,1.0931,1.1017,1.1059,1.1113,1.1113,1.1171,1.1211,1.1237,1.1308,1.1343,1.1404,1.1477,1.1512,1.1508,1.1613,1.1589,1.159,1.1595,1.1635,1.1642,1.1648,1.1569,1.1568,1.1568,0,0,1.0897,1.094,1.0995,1.1037,1.11,1.1133,1.1146,1.1214,1.1238,1.131,1.1329,1.1378,1.1475,1.1517,1.1552,1.1613,1.1625,1.1629,1.1647,1.1686,1.1691,1.1697,1.1718,1.1725,1.1635,1.1635,1.1635,0,1.0902,1.0985,1.1022,1.1078,1.1115,1.1139,1.1195,1.1234,1.1312,1.1337,1.1331,1.1452,1.1495,1.1578,1.1592,1.162,1.1635,1.1622,1.1688,1.1693,1.1699,1.1719,1.1727,1.1635,1.1635,1.1635,1.1635,0,1.0989,1.1045,1.1082,1.1157,1.1197,1.1253,1.1297,1.1334,1.1353,1.1386,1.1458,1.151,1.1576,1.1597,1.1616,1.1682,1.1678,1.1679,1.1669,1.1705,1.1725,1.1733,1.1635,1.1635,1.1635,1.1635,0,0,1.1031,1.1123,1.1136,1.1169,1.124,1.1284,1.134,1.1404,1.1435,1.1487,1.1535,1.1615,1.1617,1.1656,1.168,1.1714,1.1758,1.1711,1.1713,1.1718,1.1832,1.183,1.1839,1.1766,1.1768,1.1769,1.1827,0,1.1087,1.1188,1.1221,1.1305,1.1358,1.1381,1.1429,1.1477,1.1509,1.1558,1.1594,1.165,1.1648,1.1671,1.1706,1.1745,1.1781,1.1741,1.1811,1.1813,1.1795,1.185,1.1849,1.1901,1.1835,1.1836,1.1837,0,1.1166,1.1219,1.1308,1.1371,1.1394,1.1437,1.1498,1.1544,1.1599,1.162,1.1662,1.1683,1.1741,1.1727,1.1808,1.178,1.181,1.1833,1.1836,1.1844,1.1827,1.1859,1.1919,1.1926,1.185,1.1849,1.1848,0,1.1187,1.1281,1.1346,1.1374,1.1449,1.1478,1.1511,1.1564,1.16,1.1652,1.1676,1.1734,1.1767,1.1811,1.1847,1.1834,1.1925,1.1914,1.1943,1.1942,1.1962,1.1961,1.2027,1.1981,1.1981,1.1981,1.1981,0,1.1247,1.13,1.1356,1.1396,1.1456,1.1493,1.1552,1.1585,1.1632,1.1679,1.1702,1.1745,1.1789,1.1838,1.1866,1.1929,1.1943,1.1961,1.1968,1.196,1.1957,1.198,1.1978,1.1983,1.1983,1.1982,1.1982,0,1.1281,1.1321,1.1393,1.1457,1.1475,1.1516,1.1571,1.161,1.1642,1.17,1.1716,1.1767,1.1825,1.1865,1.194,1.1959,1.2026,1.2033,1.2008,1.2011,1.2039,1.2035,1.2123,1.2136,1.208,1.2081,1.2081,0,1.1317,1.1358,1.1426,1.1459,1.1491,1.1544,1.158,1.1617,1.1654,1.1718,1.1749,1.1809,1.1859,1.195,1.1994,1.2051,1.2059,1.2085,1.2068,1.2057,1.2059,1.2056,1.206,1.2088,1.2089,1.2089,1.2089,0,1.1375,1.1392,1.1444,1.1501,1.1544,1.1591,1.1639,1.1664,1.1709,1.1749,1.1808,1.1847,1.1922,1.1981,1.2042,1.2075,1.209,1.2094,1.2104,1.2096,1.208,1.2088,1.2015,1.2092,1.2092,1.2092,1.2092,1.2091,1.1412,1.1449,1.1502,1.1558,1.1597,1.1641,1.168,1.1717,1.1767,1.1831,1.185,1.1912,1.1964,1.2046,1.208,1.2129,1.2127,1.2141,1.2145,1.2148,1.2147,1.2071,1.214,1.214,1.214,1.214,1.214,0,1.1471,1.1506,1.1557,1.1622,1.1666,1.1675,1.1727,1.1763,1.1817,1.1864,1.1912,1.1979,1.2036,1.2083,1.2141,1.217,1.2179,1.2185,1.2183,1.219,1.2146,1.2132,1.2177,1.2177,1.2177,1.2177,1.2177,1.2177,1.1508,1.1571,1.1594,1.1677,1.1711,1.1772,1.1801,1.184,1.1878,1.1952,1.1999,1.2029,1.2075,1.2137,1.2189,1.2201,1.2221,1.2226,1.2239,1.2198,1.2193,1.2189,1.2176,1.223,1.223,1.2279,1.228,1.228]},{"header":{"parameterUnit":"m.s-1","parameterCategory":1,"la1":30.2991,"la2":30.254,"lo1":-89.0895,"lo2":-89.0444,"dy":0.0017,"dx":0.0017,"nx":28,"ny":28,"refTime":"2024-06-08T21:00:00:Z","depth":0,"parameterNumber":3,"parameterNumberName":"V-component_of_WINDS"},"data":[0,0,0,0,0,0,0,0,0,0,0,0,0,0,0,0,0,0,0,0,0,0,0,0,0,0,0,0,0,0,0,0,0,0,0,0,0,0,0,0,0,0,0,0,0,0,0,0,0,0,0,0,0,0,0,0,0,0,3.6178,3.6178,0,3.6222,3.6222,3.6223,3.6186,3.6185,3.6183,3.6182,3.6223,3.6226,3.6228,0,0,0,0,0,0,0,0,0,0,0,0,0,3.6058,3.606,3.6178,3.6178,3.6179,3.6222,3.6222,3.6223,3.6186,3.6184,3.6183,3.6181,3.6222,3.6225,3.6228,0,0,0,0,0,0,0,0,0,0,0,0,0,3.6106,3.6061,3.6178,3.6166,3.6165,3.6222,3.6222,3.6223,3.6187,3.6184,3.6182,3.618,3.6221,3.6225,3.6229,3.6298,0,0,3.6241,3.6242,0,0,0,0,0,0,0,0,3.6104,3.6111,3.6167,3.6167,3.6166,3.6196,3.6195,3.6248,3.6187,3.6178,3.6182,3.6179,3.6216,3.622,3.6233,3.63,3.6302,3.6241,3.6243,3.6245,3.6246,0,0,0,0,0,0,0,3.61,3.6109,3.6195,3.6168,3.6167,3.6157,3.6161,3.6205,3.6209,3.6179,3.6177,3.6182,3.6215,3.623,3.6234,3.6303,3.6241,3.6244,3.6246,3.6248,3.6427,3.643,0,0,0,0,0,0,3.6099,3.6106,3.6194,3.6196,3.6129,3.6161,3.6166,3.6189,3.6209,3.621,3.6184,3.6181,3.6224,3.6229,3.6235,3.6317,3.6245,3.6248,3.625,3.6425,3.6428,3.643,0,0,0,0,0,0,3.6096,3.6107,3.6192,3.6151,3.6161,3.6166,3.6191,3.6191,3.6205,3.6213,3.6213,3.6199,3.6223,3.623,3.6283,3.6318,3.625,3.6253,3.6422,3.6426,3.6429,3.6482,0,0,0,0,0,0,3.6093,3.6106,3.6134,3.6152,3.6163,3.624,3.6194,3.6193,3.6212,3.6208,3.6226,3.6227,3.6221,3.6277,3.6287,3.6322,3.6256,3.6419,3.6424,3.6428,3.6477,3.6487,3.6496,0,0,0,0,0,3.6089,3.6146,3.6135,3.6146,3.6198,3.6242,3.6249,3.6242,3.6215,3.6242,3.6247,3.6227,3.6313,3.6283,3.6293,3.633,3.6416,3.6422,3.6428,3.6473,3.6485,3.6495,0,0,0,0,0,0,3.6132,3.6149,3.6137,3.6202,3.6221,3.6236,3.627,3.6255,3.6282,3.6276,3.6265,3.627,3.6326,3.6333,3.63,3.6398,3.636,3.6368,3.6391,3.6403,3.6412,3.6409,3.626,0,0,0,0,0,3.6149,3.6185,3.6197,3.6253,3.6264,3.6265,3.6284,3.6278,3.6297,3.6304,3.6313,3.6331,3.6362,3.6383,3.6412,3.6478,3.6481,3.6508,3.6517,3.6525,3.6532,3.6566,3.6578,3.6449,3.6449,3.6449,0,0,3.6184,3.6198,3.6221,3.6262,3.6276,3.6313,3.6272,3.6313,3.6339,3.631,3.6361,3.6368,3.6387,3.6447,3.6473,3.6455,3.6568,3.6532,3.6538,3.6541,3.6573,3.6586,3.6597,3.6453,3.6452,3.6451,0,0,3.6268,3.6282,3.633,3.6345,3.6367,3.6368,3.6379,3.6397,3.64,3.6451,3.643,3.646,3.6515,3.6529,3.6544,3.6631,3.6613,3.6641,3.6689,3.6723,3.6733,3.6742,3.6773,3.6784,3.6648,3.6648,3.6648,0,3.6309,3.6364,3.6357,3.6399,3.6417,3.6393,3.6441,3.6455,3.6485,3.6498,3.6476,3.6543,3.6554,3.6617,3.6638,3.6651,3.6663,3.6639,3.6733,3.6742,3.675,3.6779,3.6791,3.6651,3.6651,3.665,3.665,0,3.6413,3.6451,3.6487,3.6518,3.654,3.6585,3.6583,3.6606,3.6597,3.6599,3.665,3.6663,3.6694,3.6708,3.6699,3.6769,3.6757,3.6734,3.6696,3.6766,3.6793,3.6804,3.6656,3.6655,3.6654,3.6653,0,0,3.6525,3.6551,3.6564,3.6578,3.66,3.6629,3.6671,3.6703,3.6722,3.6743,3.6778,3.6824,3.6803,3.682,3.6812,3.6842,3.691,3.6815,3.6816,3.6832,3.6986,3.7003,3.7016,3.6898,3.69,3.6901,3.6985,0,3.6609,3.6686,3.668,3.6751,3.6786,3.6763,3.68,3.6817,3.682,3.6848,3.6851,3.6883,3.6854,3.6863,3.6892,3.6896,3.694,3.6889,3.6929,3.6931,3.6925,3.7031,3.7049,3.7127,3.6995,3.6997,3.6998,0,3.6718,3.6744,3.6819,3.6835,3.685,3.6883,3.6911,3.6939,3.6957,3.6957,3.6975,3.6962,3.7004,3.6964,3.7021,3.6986,3.7002,3.7006,3.7009,3.7012,3.6969,3.7037,3.7151,3.7163,3.7015,3.7014,3.7012,0,3.6792,3.6845,3.6897,3.6909,3.693,3.6954,3.6963,3.6979,3.6997,3.7021,3.7033,3.706,3.7076,3.7097,3.7091,3.7063,3.7148,3.7109,3.7149,3.7149,3.7168,3.7167,3.7287,3.7178,3.7178,3.7178,3.7178,0,3.6887,3.6933,3.6931,3.6963,3.7014,3.7005,3.7056,3.7062,3.7076,3.7107,3.7089,3.7118,3.7109,3.7138,3.7133,3.718,3.7187,3.7188,3.7186,3.7189,3.7189,3.7199,3.7194,3.7181,3.718,3.718,3.7179,0,3.6978,3.6978,3.7033,3.7048,3.7053,3.709,3.7101,3.7131,3.7132,3.7172,3.718,3.7182,3.7215,3.7211,3.7248,3.7244,3.7303,3.7295,3.7297,3.7295,3.7335,3.7331,3.7466,3.7483,3.7363,3.7364,3.7365,0,3.7039,3.7074,3.7093,3.7113,3.7125,3.7157,3.7177,3.7169,3.719,3.7212,3.7239,3.727,3.7294,3.7348,3.7351,3.7379,3.7371,3.7416,3.7375,3.7377,3.7371,3.7369,3.7372,3.7424,3.7425,3.7426,3.7427,0,3.7146,3.7144,3.7174,3.7203,3.7226,3.7248,3.7268,3.7286,3.728,3.7304,3.7338,3.7357,3.7394,3.7425,3.7451,3.7459,3.7442,3.744,3.7451,3.7455,3.7455,3.7455,3.7319,3.7437,3.7436,3.7435,3.7435,3.7435,3.7224,3.7254,3.7272,3.7305,3.7319,3.7338,3.7366,3.7371,3.7399,3.743,3.7423,3.7461,3.7477,3.751,3.752,3.7549,3.7532,3.7548,3.7552,3.7556,3.756,3.745,3.7553,3.7553,3.7553,3.7553,3.7552,0,3.733,3.734,3.7371,3.74,3.7425,3.7408,3.7429,3.7451,3.7485,3.7501,3.7526,3.7564,3.7594,3.7599,3.7627,3.7649,3.7642,3.7656,3.7655,3.7657,3.7574,3.7562,3.7662,3.7662,3.7662,3.7662,3.7662,3.7662,3.7388,3.7439,3.7439,3.7495,3.7504,3.7542,3.7556,3.7572,3.7585,3.7629,3.7654,3.7658,3.767,3.7698,3.7724,3.7725,3.7736,3.7753,3.7751,3.7673,3.7663,3.7652,3.7641,3.7756,3.7756,3.7832,3.7832,3.7833]}]]